Reflectivity
-20 -20 -20 -20 -20 -20 -20 -20 -20 -20 -20 -20 -20 -20 -20 -20 -20 -20 -20 -20 -20 -20 -20 -20 -20 -20 -20 -20 -20 -20 -20 -20 -20 -20 -20 -20 -20 -20 -20 -20 -20 -20 -20 -20
-20 -20 -20 -20 -20 -20 -20 -20 -20 -20 -20 -20 -20 -20 -20 -20 -20 -20 -20 -20 -20 -20 -20 -20 -20 -20 -20 -20 -20 -20 -20 -20 -20 -20 -20 -20 -20 -20 -20 -20 -20 -20 -20 -20
-20 -20 -20 -20 -20 -20 -20 -20 -20 -20 -20 -20 -20 -20 -20 -20 -20 -20 -20 -20 -20 -20 -20 -20 -20 -20 -20 -20 -20 -20 -20 -20 -20 -20 -20 -20 -20 -20 -20 -20 -20 -20 -20 -20
-20 -20 -20 -20 -20 -20 -20 -20 -20 -20 -20 -20 -20 -20 -20 -20 -20 -20 -20 -20 -20 -20 -20 -20 -20 -20 -20 -20 -20 -20 -20 -20 -20 -20 -20 -20 -20 -20 -20 -20 -20 -20 -20 -20
-20 -20 -20 -20 -20 -20 -20 -20 -20 -20 -20 -20 -20 -20 -20 -20 -20 -20 -20 -20 -20 -20 -20 -20 -20 -20 -20 -20 -20 -20 -20 -20 -20 -20 -20 -20 -20 -20 -20 -1 -6 -20 -20 -17
-20 -20 -20 -20 -20 -20 -20 -20 -20 -20 -20 -20 -20 -20 -20 -20 -20 -20 -20 -20 -20 -20 -20 -20 -20 -20 -20 -20 -20 -20 -20 -20 -20 -20 -20 -20 -20 -10 -17 -18 -20 -20 -19 -18
-20 -20 -20 -20 -20 -20 -20 -20 -14 -20 -18 -13 -20 -20 -20 -20 -20 -20 -20 -20 -9 -3 -17 -20 -20 -20 -20 -20 -20 -20 -20 -20 -20 -20 -20 -18 -15 -3 -17 -20 -19 -5 -19 -20
-20 -20 -20 -20 -20 -20 -20 2 15 6 -20 -20 -20 -20 -20 -20 -20 -20 -15 0 -11 1 1 -9 -20 -20 -20 -20 -20 -20 -16 -17 -20 -20 -20 -8 -18 -10 -10 -10 -18 -20 -10 -16
-20 -20 -20 -20 -20 -20 -20 -14 -4 3 16 -11 -20 -20 -20 -20 -20 -20 -6 7 -3 -20 -20 -20 -20 -20 -20 -20 -20 -20 -20 -20 -20 -20 -20 -19 -19 -19 -20 -20 -20 -20 -20 -20
-20 -20 -20 -20 -20 -20 -20 -20 -16 23 28 13 -11 -20 -20 -20 -20 -20 -20 -9 7 -19 26 22 16 -20 -20 -18 3 -5 -20 -20 -20 -20 -20 -20 -20 -20 -20 -20 -20 -20 -20 -20
-20 -20 -20 -20 -20 -20 -20 15 -20 -14 10 30 25 -4 -20 -20 -20 -20 -20 -16 -0 9 -19 22 24 -16 -20 -16 -12 -4 -20 -20 -20 -20 -20 -20 -20 -20 -20 -20 -20 -20 -20 -20
-20 -20 -20 -20 -20 -20 -20 -19 18 7 9 13 12 30 -0 -20 -20 -20 -20 7 4 8 21 -15 -17 28 26 20 18 -13 -20 -20 -17 -20 -20 -20 -20 -20 -20 -20 -20 -20 -20 -20
-20 -20 -20 -20 -20 -20 -20 -20 -20 -20 7 14 6 -10 -2 -4 -20 -1 -9 15 -3 -9 -6 3 17 24 25 20 21 -16 5 -20 -20 -20 -20 -20 -20 -20 -20 -20 -20 -4 -10 -20
-20 -20 -20 -20 -20 -20 -20 -20 1 8 -11 -18 3 15 -11 4 -11 -20 6 27 13 10 9 -20 6 2 20 20 19 1 15 1 -20 -20 -20 -20 -20 -19 -20 -20 -20 -20 -20 -20
-20 -20 -20 -20 -20 -20 -20 -20 -20 -20 -10 -18 -20 -20 -17 8 4 -19 -16 3 22 33 30 -20 -20 -20 -20 -9 16 3 15 -14 -11 8 -10 -20 -20 -20 -20 -20 -20 -20 -20 -20
-20 -20 -20 -20 -20 -20 -20 -20 -20 -20 -20 -20 -20 -20 -20 -20 2 -1 5 0 23 23 20 -14 -16 -20 18 0 11 21 17 15 23 33 -14 -20 -20 -20 -20 -20 -20 -20 -20 -20
-20 -20 -20 -20 -20 -20 -20 -20 -20 -20 -20 -20 -20 -20 -20 -20 -20 -0 1 15 3 19 11 -6 5 13 -20 -20 -20 -5 -12 17 -5 15 14 -1 -20 -20 -20 -20 -20 -20 -20 -20
-20 -20 -20 -20 -20 -19 -20 -20 -20 -20 -20 -20 -20 -20 -20 -20 -20 -20 -20 -5 12 -13 -19 -11 -8 -20 -20 -20 -11 15 8 6 18 10 -5 -20 -20 -20 -20 -20 -20 -20 -20 -20
-20 -20 -20 -5 -20 -20 -20 -20 -20 -20 -20 -20 -20 -20 -20 -20 -20 -20 -20 -20 -17 -19 -20 -20 -20 -20 8 1 31 36 39 25 2 9 -19 -20 -20 -20 -20 -20 -20 -20 -20 -20
-20 -20 4 -20 9 -7 -20 -20 -20 -20 -20 -20 -20 -20 -20 -20 -20 -20 -20 -20 -20 -20 -20 -20 -20 -20 -13 12 15 4 23 34 23 9 -0 -20 -20 -20 -20 -20 -20 -20 -20 -20
-20 -20 5 -2 9 -14 -20 -20 -20 -20 -20 -20 -20 -20 -20 -20 -20 -20 -20 -20 -15 -20 -20 -20 -20 -20 15 -20 -1 -13 26 32 30 -14 -20 -20 -20 -20 -20 -20 -20 -20 -20 -20
-20 -0 -20 -19 13 -2 -20 -20 -16 -20 -20 -20 -20 -20 -20 -20 -20 -20 -20 -19 20 33 -10 -7 -20 -20 -20 4 -8 -4 31 37 32 17 -10 -20 -20 -20 -20 -20 -20 -20 -20 -20
-1 -16 -17 16 -7 -20 -20 -20 -20 -20 -20 -20 -20 -20 -20 -20 -20 -20 -14 5 6 28 31 -19 -20 1 -20 9 0 7 25 23 19 14 4 -20 -20 -20 -20 -20 -20 -20 -20 -20
-20 -20 -20 -20 -20 -20 -20 -20 -20 -20 -20 -20 -20 -20 -20 -20 -14 14 -1 -3 9 16 42 35 22 22 18 18 35 40 32 31 31 22 17 -9 -20 -20 -20 -20 -20 -20 -20 -20
-20 -20 -20 -20 -20 -20 -20 -20 -20 -20 -20 -20 -20 -20 -20 -20 -3 -3 -20 6 10 30 41 27 -1 10 26 35 35 34 25 18 3 -10 -20 -20 -20 -20 -20 -20 -20 -20 -20 -20
-20 -20 -15 -20 -20 -20 -20 -20 -20 -20 -20 -20 -20 -20 -20 -18 -10 -20 6 16 19 20 40 33 33 44 34 27 13 11 16 13 -14 -20 -20 -20 -20 -20 -20 -20 -20 -20 -20 -20
Wind_Speed
5 3 7 12 11 8 6 14 14 18 22 6 12 9 13 12 8 11 11 10 10 12 16 13 11 10 8 10 18 19 20 18 13 12 13 11 13 9 7 6 10 9 11 13
4 11 10 11 10 10 12 16 17 18 16 8 11 17 12 10 8 9 12 11 12 8 8 11 8 5 5 9 17 18 21 18 17 13 12 8 10 7 7 5 5 7 10 11
12 7 7 11 13 13 17 18 16 19 17 17 6 20 7 8 9 10 8 10 12 14 10 5 7 6 3 5 10 16 19 19 18 16 9 4 5 3 2 4 5 6 8 9
10 3 8 12 16 11 21 16 18 19 18 17 6 19 17 7 9 8 16 11 11 10 7 7 8 7 6 3 4 6 11 14 14 14 13 13 9 7 6 8 7 5 7 8
18 13 7 13 15 10 18 8 12 14 13 8 21 3 13 2 7 10 18 11 11 6 9 10 8 7 5 5 5 7 8 9 8 13 13 10 6 5 2 2 5 6 6 7
18 6 5 7 11 12 14 16 14 11 9 12 21 7 19 10 6 7 15 21 9 9 10 8 6 8 6 4 4 5 8 12 12 12 11 13 11 6 4 4 3 3 3 4
7 10 5 8 11 15 12 11 12 11 11 11 13 7 19 4 7 13 13 15 21 11 11 11 10 8 8 5 6 7 7 6 8 10 9 8 7 6 6 3 1 2 2 2
5 12 3 11 5 10 3 4 4 15 11 12 14 15 16 11 8 11 12 13 23 17 16 13 11 9 9 7 6 7 8 10 8 9 8 6 7 6 5 7 6 5 4 5
5 9 17 14 10 2 4 11 7 7 11 12 11 23 21 16 14 19 13 17 18 13 5 5 4 9 10 8 8 10 12 12 12 12 10 9 9 9 9 8 8 6 5 5
4 11 4 5 7 6 6 4 5 1 3 7 9 13 15 15 11 11 19 19 20 18 17 5 12 11 8 10 10 12 13 12 10 11 11 10 10 10 9 9 9 9 7 8
3 4 8 7 4 3 7 5 2 2 2 3 3 9 5 7 11 10 8 13 16 20 14 17 6 6 8 10 11 13 13 13 12 11 11 12 11 11 10 11 10 9 10 10
3 4 9 14 13 17 7 8 5 1 1 5 5 14 10 14 16 9 13 13 12 17 4 10 7 8 9 9 9 10 13 15 11 10 12 11 11 11 12 11 10 9 10 11
4 4 7 18 6 6 5 4 9 8 4 7 5 13 4 9 19 22 21 12 14 1 7 9 7 7 9 7 8 12 10 11 11 12 12 11 11 11 11 10 10 11 11 11
5 6 9 12 9 8 14 9 3 7 6 10 12 24 22 23 20 25 26 20 11 5 8 9 9 8 6 5 10 12 9 10 10 11 12 11 10 9 9 10 11 11 10 11
3 5 6 11 12 5 7 11 10 9 9 11 14 27 24 19 21 21 25 22 8 6 9 4 11 14 14 16 10 11 12 11 11 12 11 9 8 9 10 11 10 11 11 10
2 5 3 13 9 11 14 10 5 11 16 17 16 21 13 17 17 20 24 26 24 18 11 18 19 14 13 15 14 12 13 10 13 10 11 9 10 11 10 10 11 11 10 7
3 3 1 15 6 13 17 12 8 5 2 6 11 18 11 13 17 20 17 22 24 32 6 9 11 9 9 11 11 12 12 11 11 14 9 10 11 11 10 11 11 10 7 6
8 5 2 8 4 9 13 11 13 9 10 11 21 17 13 14 16 18 16 20 27 22 17 14 14 14 15 14 13 12 11 11 13 12 10 9 11 12 11 10 9 7 6 7
16 11 4 8 12 16 27 18 12 10 19 10 17 9 14 16 19 13 22 22 23 24 17 9 15 19 17 17 17 17 10 10 12 11 9 9 11 12 11 12 11 10 7 8
9 11 9 2 4 9 28 5 7 5 12 4 7 10 16 16 16 13 23 26 26 32 8 14 17 17 15 14 16 15 16 11 10 10 9 11 11 12 12 11 10 8 7 8
7 4 11 12 10 16 9 2 5 4 10 4 5 5 11 8 5 10 19 24 31 1 10 13 15 16 14 15 17 18 10 14 10 8 10 10 13 12 11 9 7 8 8 9
12 9 11 9 15 21 3 1 8 6 9 5 5 5 6 7 5 10 15 15 18 15 11 11 15 14 12 12 15 17 15 10 10 9 10 13 12 10 8 9 8 9 8 8
7 7 6 7 6 15 8 6 6 7 16 4 4 6 5 7 8 9 10 10 6 9 9 13 16 16 14 13 14 18 15 11 10 12 12 13 12 8 9 8 7 5 5 4
8 13 12 7 15 24 19 13 7 10 16 6 5 6 7 7 7 12 9 7 7 4 8 9 17 18 16 15 14 14 12 11 12 11 11 8 7 7 6 5 4 3 3 6
12 2 13 16 19 18 18 19 19 19 17 5 9 9 7 6 11 15 15 11 11 13 4 4 18 16 16 14 15 13 12 11 12 11 10 9 8 9 8 7 8 8 8 12
20 27 13 18 25 18 21 20 14 10 14 13 8 7 5 2 8 15 17 12 15 17 7 4 14 18 15 14 14 13 13 12 11 11 9 8 7 6 5 5 7 15 16 19
Wind_Direction
250 193 199 221 214 221 254 270 263 277 281 274 276 260 270 276 275 278 268 268 254 245 254 252 248 236 207 195 202 199 196 194 180 184 186 191 203 199 198 200 195 193 200 201
299 235 222 224 239 231 244 259 270 276 274 266 282 275 260 265 255 244 265 269 262 262 262 256 236 227 235 193 198 190 194 186 188 189 190 192 196 208 207 190 196 196 191 193
225 227 231 227 244 243 249 249 265 264 283 283 307 285 268 269 283 286 264 249 273 246 226 193 151 147 141 177 187 188 190 186 187 186 172 106 98 78 159 211 213 210 198 193
256 223 246 251 248 232 253 250 257 265 274 270 236 278 280 258 272 288 290 297 288 232 217 165 162 159 157 152 173 169 182 183 185 173 172 172 180 183 204 210 219 215 204 211
261 280 295 282 279 279 269 280 255 268 268 287 271 232 286 235 294 292 293 276 297 282 271 186 179 149 147 156 165 181 162 167 166 175 175 171 168 181 115 233 201 213 223 219
249 223 208 234 282 296 291 287 279 274 269 258 263 181 272 257 221 261 268 286 248 256 228 224 172 144 135 137 144 175 172 178 163 168 162 171 179 176 157 198 217 242 229 233
310 270 256 247 263 283 295 271 284 278 262 259 266 228 246 285 223 247 271 281 289 247 199 206 169 149 129 131 125 134 134 143 164 163 161 152 145 167 175 166 189 32 21 3
9 310 333 7 13 300 359 353 257 280 282 295 297 259 264 262 253 268 279 290 281 275 190 191 165 147 135 131 117 102 97 87 100 108 94 106 105 104 103 94 84 65 53 41
342 270 330 310 338 311 271 236 220 262 260 280 272 282 293 282 280 274 5 353 356 344 160 225 144 149 134 126 112 108 96 88 89 94 100 91 93 92 88 78 75 68 50 44
245 288 252 311 319 258 193 257 304 262 284 246 229 247 254 293 344 347 351 343 338 329 308 272 177 161 127 114 101 90 90 92 91 94 96 94 92 88 84 79 74 69 57 48
289 218 276 328 210 23 340 337 25 108 201 283 289 264 48 344 318 311 335 330 325 322 301 181 282 59 86 98 108 107 97 93 87 87 88 85 82 78 74 70 61 55 49 39
277 282 285 269 281 265 262 325 78 265 273 218 171 274 309 289 277 312 333 329 327 329 5 82 67 28 37 54 61 68 90 92 81 76 74 71 74 74 71 66 61 54 55 52
292 278 310 307 53 39 48 18 17 329 301 242 230 258 66 337 331 320 311 312 306 326 72 75 69 87 79 89 86 80 71 78 84 88 83 71 69 69 68 66 61 58 58 60
267 235 222 253 279 304 297 298 345 326 290 298 287 296 314 322 319 327 325 311 291 233 123 109 117 128 136 103 106 109 97 78 78 79 78 79 73 76 72 68 68 66 61 58
42 274 276 289 310 296 287 289 298 289 291 276 286 279 294 325 338 330 325 330 270 195 153 243 164 156 145 130 134 122 110 111 101 96 84 76 77 75 73 73 68 67 60 57
267 260 283 284 281 285 291 280 273 262 260 257 276 284 333 344 343 339 323 327 322 307 182 211 183 159 159 133 124 130 104 91 94 76 87 85 81 74 74 71 67 65 60 55
231 258 6 280 23 342 291 271 210 245 194 291 292 310 325 340 343 330 344 351 358 348 24 87 111 105 85 76 94 91 101 101 87 85 81 85 86 82 75 70 66 59 49 43
234 234 158 280 312 264 265 254 263 270 290 299 308 317 344 343 329 304 353 353 336 337 300 121 118 113 103 93 76 81 85 85 84 80 83 87 87 82 76 73 69 60 54 40
212 217 227 235 245 286 282 263 272 284 283 290 271 334 332 333 331 337 341 344 324 333 291 138 126 124 124 115 117 109 69 69 80 76 83 81 78 74 65 59 53 40 38 35
230 231 222 101 211 242 261 49 31 351 287 244 32 344 338 345 338 329 330 329 324 320 222 140 122 113 104 109 110 97 106 85 79 80 82 77 73 71 65 61 52 45 39 40
259 240 222 241 245 259 299 295 181 170 262 87 328 313 323 327 278 313 319 330 340 294 127 116 109 107 111 113 105 96 81 91 86 76 73 78 76 66 61 60 58 55 43 38
264 251 242 241 243 257 135 232 192 227 282 300 287 285 290 292 319 328 320 358 10 335 118 111 104 101 99 101 105 100 92 95 93 91 80 74 69 65 68 64 57 51 45 33
249 213 237 249 254 295 293 302 229 267 285 289 247 269 269 289 302 315 315 336 105 332 305 113 102 90 80 88 85 96 95 94 87 74 69 71 67 60 59 50 39 27 31 20
252 234 241 251 245 251 264 267 248 263 271 253 245 276 278 277 297 298 289 291 134 101 283 118 98 95 84 71 78 83 94 104 98 91 78 79 82 76 59 50 30 23 8 13
245 289 241 255 253 265 272 260 256 264 275 244 290 271 260 278 293 289 283 233 141 127 205 124 106 91 87 86 84 91 101 96 85 75 69 59 50 44 33 39 44 34 28 32
244 245 241 248 255 250 264 271 264 250 267 270 240 234 264 347 312 294 270 168 135 113 128 127 91 94 94 86 82 81 84 85 82 72 61 60 58 53 43 33 29 24 29 35